Change the Weather History Date:

Monday, October 31, 2011

  Actual Average (KRHI) Record (KRHI)
Temperature  
Mean Temperature 40 °F 38 °F  
Max Temperature 43 °F 47 °F 76 °F (1950)
Min Temperature 35 °F 30 °F 11 °F (1925)
Degree Days  
Heating Degree Days 26 27  
Month to date heating degree days 662  
Since 1 July heating degree days 1093  
Cooling Degree Days 0 0  
Month to date cooling degree days 2  
Year to date cooling degree days 261  
Moisture  
Dew Point 35 °F    
Average Humidity 87    
Maximum Humidity 97    
Minimum Humidity 72    
Precipitation  
Precipitation 0.02 in 0.07 in 1.15 in (1960)
Month to date precipitation 3.04  
Year to date precipitation 28.12  
Snow  
Snow 0.00 in - 0.80 in (1939)
Month to date snowfall  
Since 1 July snowfall  
Since 1 September snowfall  
Snow Depth -    
Sea Level Pressure  
Sea Level Pressure 29.95 in    
Wind  
Wind Speed 1 mph (West)    
Max Wind Speed 7 mph    
Max Gust Speed -    
Visibility 7 miles    
Events      
T = Trace of Precipitation, MM = Missing Value Source: NWS Daily Summary

Daily Weather History Graph

Daily Weather History Graph

Search for Another Location

Airport or City:

Trip Planner

Search our weather history database for the weather conditions in past years. The results will help you decide how hot, cold, wet, or windy it might be!

Date:

Astronomy

Oct. 31, 2011 Rise Set
Actual Time 7:36 AM CDT 5:48 PM CDT
Civil Twilight 7:06 AM CDT 6:18 PM CDT
Nautical Twilight 6:31 AM CDT 6:53 PM CDT
Astronomical Twilight 5:56 AM CDT 7:28 PM CDT
Moon 12:50 PM CDT (10/31) 10:18 PM CDT (10/31)
Length of Visible Light 11h 12m
Length of Day
10h 11m
Waxing Crescent, 30% of the Moon is Illuminated
Oct 31
Waxing Crescent
Nov 2
First Quarter
Nov 10
Full
Nov 18
Last Quarter
Nov 25
New

Hourly Weather History & Observations

Time (CDT) Temp. Windchill Dew Point Humidity Pressure Visibility Wind Dir Wind Speed Gust Speed Precip Events Conditions
12:15 AM 36.5 °F - 35.6 °F 97% 29.87 in 2.0 mi Calm Calm - N/A   Overcast
12:35 AM 36.7 °F - 35.6 °F 96% 29.88 in 2.0 mi Calm Calm - N/A   Overcast
12:55 AM 36.5 °F - 35.6 °F 97% 29.88 in 2.0 mi Calm Calm - N/A   Overcast
1:15 AM 36.5 °F - 35.6 °F 97% 29.87 in 2.0 mi Calm Calm - N/A   Overcast
1:55 AM 36.7 °F - 35.6 °F 96% 29.87 in 2.5 mi Calm Calm - N/A   Overcast
2:15 AM 36.7 °F - 35.6 °F 96% 29.88 in 2.5 mi Calm Calm - N/A   Overcast
2:55 AM 36.3 °F 33.7 °F 35.1 °F 95% 29.89 in 2.5 mi West 3.5 mph - N/A   Overcast
3:15 AM 36.1 °F - 35.1 °F 96% 29.89 in 2.0 mi Calm Calm - N/A   Overcast
3:35 AM 36.1 °F - 35.1 °F 96% 29.89 in 2.0 mi Calm Calm - N/A   Overcast
3:55 AM 36.1 °F - 34.9 °F 95% 29.90 in 2.0 mi Calm Calm - N/A   Overcast
4:15 AM 36.1 °F 33.5 °F 35.1 °F 96% 29.90 in 2.0 mi West 3.5 mph - N/A   Overcast
4:55 AM 36.5 °F - 35.2 °F 95% 29.91 in 2.5 mi Calm Calm - N/A   Overcast
5:15 AM 36.5 °F 33.9 °F 35.4 °F 96% 29.91 in 2.0 mi West 3.5 mph - N/A   Overcast
5:35 AM 36.7 °F 34.1 °F 35.6 °F 96% 29.92 in 1.8 mi West 3.5 mph - N/A   Overcast
5:55 AM 36.9 °F - 35.8 °F 96% 29.92 in 1.8 mi Calm Calm - N/A   Overcast
6:15 AM 36.9 °F - 35.8 °F 96% 29.92 in 2.0 mi Calm Calm - N/A   Overcast
6:55 AM 37.2 °F - 36.1 °F 96% 29.92 in 4.0 mi Calm Calm - N/A   Overcast
7:15 AM 37.4 °F - 36.0 °F 95% 29.92 in 4.0 mi Calm Calm - N/A   Overcast
7:35 AM 37.2 °F 34.7 °F 36.0 °F 95% 29.93 in 3.0 mi West 3.5 mph - N/A   Overcast
7:55 AM 37.0 °F - 35.8 °F 95% 29.94 in 4.0 mi Calm Calm - N/A   Overcast
8:15 AM 37.4 °F 34.9 °F 36.0 °F 95% 29.94 in 3.0 mi West 3.5 mph - N/A   Overcast
8:35 AM 37.4 °F 34.9 °F 36.1 °F 95% 29.94 in 3.0 mi West 3.5 mph - N/A   Overcast
8:55 AM 37.4 °F 34.9 °F 36.1 °F 95% 29.95 in 5.0 mi West 3.5 mph - N/A   Overcast
9:15 AM 37.6 °F 35.1 °F 36.3 °F 95% 29.95 in 5.0 mi West 3.5 mph - N/A   Overcast
9:35 AM 37.9 °F 34.4 °F 36.5 °F 95% 29.95 in 7.0 mi WNW 4.6 mph - N/A   Overcast
9:55 AM 38.1 °F 35.7 °F 36.5 °F 94% 29.95 in 7.0 mi West 3.5 mph - N/A   Overcast
10:15 AM 38.5 °F - 36.5 °F 93% 29.95 in 7.0 mi Calm Calm - N/A   Overcast
10:35 AM 39.0 °F - 36.5 °F 91% 29.95 in 7.0 mi Calm Calm - N/A   Overcast
10:55 AM 39.6 °F 37.4 °F 36.7 °F 89% 29.96 in 10.0 mi WNW 3.5 mph - N/A   Overcast
11:15 AM 39.9 °F 37.8 °F 36.7 °F 88% 29.97 in 10.0 mi West 3.5 mph - N/A   Overcast
11:35 AM 40.5 °F 38.4 °F 36.5 °F 86% 29.97 in 10.0 mi WNW 3.5 mph - N/A   Overcast
11:55 AM 41.0 °F 39.0 °F 37.0 °F 86% 29.97 in 10.0 mi NW 3.5 mph - N/A   Overcast
12:15 PM 41.7 °F 39.8 °F 36.9 °F 83% 29.95 in 10.0 mi WNW 3.5 mph - N/A   Overcast
12:35 PM 41.9 °F - 36.9 °F 82% 29.95 in 10.0 mi Calm Calm - N/A   Overcast
12:55 PM 42.6 °F 40.9 °F 36.9 °F 80% 29.95 in 10.0 mi West 3.5 mph - N/A   Overcast
1:15 PM 42.8 °F - 36.1 °F 77% 29.95 in 10.0 mi Calm Calm - N/A   Overcast
1:35 PM 42.6 °F 39.9 °F 36.3 °F 78% 29.95 in 10.0 mi West 4.6 mph - N/A   Overcast
1:55 PM 42.8 °F - 36.0 °F 77% 29.95 in 10.0 mi Calm Calm - N/A   Overcast
2:15 PM 43.2 °F 40.5 °F 35.8 °F 75% 29.95 in 10.0 mi SW 4.6 mph - N/A   Overcast
2:35 PM 43.0 °F 41.3 °F 34.7 °F 73% 29.95 in 10.0 mi West 3.5 mph - N/A   Overcast
2:55 PM 43.0 °F 38.8 °F 34.3 °F 72% 29.96 in 10.0 mi West 6.9 mph - N/A   Overcast
3:15 PM 42.8 °F 41.1 °F 34.5 °F 73% 29.96 in 10.0 mi SW 3.5 mph - N/A   Overcast
3:35 PM 42.6 °F 39.0 °F 34.5 °F 73% 29.97 in 10.0 mi WSW 5.8 mph - N/A   Overcast
3:55 PM 42.3 °F 39.4 °F 34.2 °F 73% 29.97 in 10.0 mi SW 4.6 mph - N/A   Overcast
4:15 PM 41.9 °F - 33.8 °F 73% 29.97 in 10.0 mi Calm Calm - N/A   Overcast
4:35 PM 41.7 °F - 34.2 °F 75% 29.97 in 10.0 mi Calm Calm - N/A   Overcast
4:55 PM 41.4 °F 39.4 °F 34.5 °F 77% 29.97 in 10.0 mi SW 3.5 mph - N/A   Overcast
5:15 PM 41.4 °F - 34.3 °F 76% 29.98 in 10.0 mi Calm Calm - N/A   Overcast
5:35 PM 41.2 °F - 34.2 °F 76% 29.99 in 10.0 mi Calm Calm - N/A   Overcast
5:55 PM 41.0 °F - 34.3 °F 77% 29.98 in 10.0 mi Calm Calm - N/A   Overcast
6:15 PM 40.6 °F - 34.5 °F 79% 29.99 in 10.0 mi Calm Calm - N/A   Overcast
6:35 PM 40.5 °F - 34.9 °F 80% 30.00 in 10.0 mi Calm Calm - N/A   Overcast
6:55 PM 40.3 °F - 35.1 °F 82% 30.00 in 10.0 mi Calm Calm - N/A   Overcast
7:15 PM 40.1 °F - 35.4 °F 83% 30.00 in 10.0 mi Calm Calm - N/A   Overcast
7:35 PM 40.1 °F - 35.1 °F 82% 30.01 in 10.0 mi Calm Calm - N/A   Overcast
7:55 PM 39.9 °F - 34.9 °F 82% 30.00 in 10.0 mi Calm Calm - N/A   Overcast
8:15 PM 39.4 °F - 34.7 °F 83% 30.00 in 10.0 mi Calm Calm - N/A   Overcast
8:35 PM 38.3 °F - 34.2 °F 85% 30.00 in 10.0 mi Calm Calm - N/A   Mostly Cloudy
8:55 PM 36.7 °F - 33.3 °F 87% 30.01 in 7.0 mi Calm Calm - N/A   Mostly Cloudy
9:15 PM 36.1 °F - 33.3 °F 89% 30.01 in 7.0 mi Calm Calm - N/A   Mostly Cloudy
9:35 PM 35.2 °F - 32.9 °F 91% 30.02 in 5.0 mi Calm Calm - N/A   Scattered Clouds
9:55 PM 34.3 °F - 32.4 °F 92% 30.02 in 5.0 mi Calm Calm - N/A   Scattered Clouds
10:15 PM 34.5 °F - 32.5 °F 92% 30.02 in 5.0 mi Calm Calm - N/A   Scattered Clouds
10:35 PM 34.0 °F - 32.2 °F 93% 30.02 in 5.0 mi Calm Calm - N/A   Clear
11:15 PM 34.3 °F 31.4 °F 32.2 °F 92% 30.01 in 5.0 mi SSE 3.5 mph - N/A   Clear
11:35 PM 34.7 °F - 32.4 °F 91% 30.01 in 7.0 mi Calm Calm - N/A   Clear
11:55 PM 34.9 °F - 32.4 °F 91% 30.01 in 7.0 mi Calm Calm - N/A   Clear